SCP
0 0 0 0 0 0 0 0 0 0 0 0 0 0 0 0 0 0 0 0 0 0 0 0 0 0 0 0 0 0 0 0 0 0 0 0 0 -0 -0 -0 -0 -0 0
0 0 0 0 0 0 0 0 0 0 0 0 0 0 0 0 0 0 0 0 0 0 0 0 0 0 0 0 0 0 0 0 0 0 0 0 0 0 0 0 0 0 0
0 0 0 0 0 0 0 0 0 0 0 0 0 0 0 0 0 0 0 0 0 0 0 0 0 0 0 0 0 0 0 0 0 0 0 0 0 0 0 0 0 0 0
0 0 0 0 0 0 0 0 0 0 0 0 0 0 0 0 0 0 0 0 0 0 0 0 0 0 0 0 0 0 0 0 0 0 0 0 0 0 1 1 0 0 0
0 0 0 0 0 0 0 0 0 0 0 0 0 0 0 0 0 0 0 0 0 0 0 0 0 0 0 0 0 0 0 0 0 0 0 0 0 0 1 1 1 1 1
0 0 0 0 0 0 0 0 0 0 0 0 0 0 0 0 0 0 0 0 0 0 0 0 0 0 0 0 0 0 0 0 0 0 0 0 0 0 0 1 1 1 1
0 0 0 0 0 0 0 0 0 0 0 0 0 0 0 0 0 0 0 0 0 0 0 0 0 0 0 0 0 0 0 0 0 0 0 0 0 0 0 0 0 1 1
0 0 0 0 0 0 0 0 0 0 0 0 0 0 0 0 0 0 0 0 0 0 0 0 0 0 0 0 0 0 0 0 0 0 0 0 0 0 0 0 0 0 1
0 0 0 0 0 0 0 0 0 0 0 0 0 0 0 0 0 0 0 0 0 0 0 0 0 0 0 0 0 0 0 0 0 0 0 0 0 0 0 0 0 0 0
0 0 0 0 0 0 0 0 0 0 0 0 0 0 0 0 0 0 0 0 0 0 0 0 0 0 0 0 0 0 0 0 0 0 0 0 0 0 0 0 1 1 0
0 0 0 0 0 0 0 0 0 0 0 0 0 0 0 0 0 0 0 0 0 0 0 0 0 0 0 0 0 0 0 0 0 0 0 0 0 0 0 0 1 1 0
0 0 0 0 0 0 0 0 0 0 0 0 0 0 0 0 0 0 0 0 0 0 0 0 0 0 0 0 0 0 0 0 0 0 0 0 0 0 0 0 0 0 0
0 0 0 0 0 0 0 0 0 0 0 0 0 0 0 0 0 0 0 0 0 0 0 0 0 0 0 0 0 0 0 0 0 0 0 0 0 0 0 0 0 0 0
0 0 0 0 0 0 0 0 0 0 0 0 0 0 0 0 0 0 0 0 0 0 0 0 0 0 0 0 0 0 0 0 0 0 0 0 0 0 0 0 0 0 0
0 0 0 0 0 0 0 0 0 0 0 0 0 0 0 0 0 0 0 0 0 0 0 0 0 0 0 0 0 0 0 0 0 0 0 0 0 0 0 0 0 0 0
0 0 0 0 0 0 0 0 0 0 0 0 0 0 0 0 0 0 0 0 0 0 0 0 0 0 0 0 0 0 0 0 0 0 0 0 0 0 0 0 0 0 0
0 0 0 0 0 0 0 0 0 0 0 0 0 0 0 0 0 0 0 0 0 0 0 0 0 0 0 -0 -0 -0 0 0 0 0 0 0 0 0 0 0 0 0 0
0 0 0 0 0 0 0 0 0 0 0 0 0 0 0 0 0 0 0 0 0 0 0 0 0 0 0 -0 -0 0 0 0 0 0 0 0 0 0 0 0 0 0 0
0 0 0 0 0 0 0 0 0 0 0 0 0 0 0 0 0 0 0 0 0 0 0 0 0 0 0 -0 0 0 0 0 0 0 0 0 0 0 0 0 0 0 0
0 0 0 0 0 0 0 0 0 0 0 0 0 0 0 0 0 0 0 0 0 0 0 0 0 0 -0 -0 0 0 0 0 0 0 0 0 0 0 0 0 0 0 0
0 0 0 0 0 0 0 0 0 0 0 0 0 0 0 0 0 0 0 0 0 0 0 0 0 0 0 -0 0 0 0 0 0 0 0 0 0 0 0 0 0 0 0
0 0 0 0 0 0 0 0 0 0 0 0 0 0 0 0 0 0 0 0 0 0 0 0 0 0 0 0 0 0 0 0 0 0 0 0 0 0 0 0 0 0 0
0 0 0 0 0 0 0 0 0 0 0 0 0 0 0 0 0 0 0 0 0 0 0 0 0 0 0 0 0 0 0 0 0 0 0 0 0 0 0 0 0 0 0
0 0 0 0 0 0 0 0 0 0 0 0 0 0 0 0 0 0 0 0 0 0 0 0 0 0 0 0 0 0 0 0 0 0 0 0 0 0 0 0 0 0 0
0 0 0 0 0 0 0 0 0 0 0 0 0 0 0 0 0 0 0 0 0 0 0 0 0 0 0 0 0 0 0 0 0 0 0 0 0 0 0 0 0 0 0
0 0 0 0 0 0 0 0 0 0 0 0 0 0 0 0 0 0 0 0 0 0 0 0 0 0 0 0 0 0 0 0 0 0 0 0 0 0 0 0 0 0 0
Wind_Speed
6 9 9 9 10 12 14 14 12 10 10 10 12 14 14 14 15 15 14 11 9 8 9 9 10 10 10 9 9 9 8 7 9 10 11 11 8 6 5 4 4 4 5
8 10 11 10 11 12 13 14 15 14 14 14 14 14 15 15 15 15 15 14 13 11 10 10 11 12 12 11 11 10 10 8 7 7 10 11 10 8 5 2 2 3 8
6 9 11 11 11 12 13 14 13 13 13 13 14 14 14 14 14 14 14 14 14 14 14 14 15 15 14 12 11 10 10 10 9 8 10 7 7 3 2 1 0 3 7
7 10 9 10 11 12 12 12 12 11 11 11 11 12 12 12 12 13 13 14 13 13 13 14 14 15 15 14 12 11 10 10 9 10 7 6 5 6 6 4 4 5 6
7 9 8 10 11 12 12 12 11 11 11 11 12 12 12 11 12 12 12 12 12 13 12 13 13 13 14 14 14 14 14 13 11 9 6 5 5 5 7 8 8 7 7
7 9 7 9 11 11 11 11 11 12 12 12 12 12 12 12 12 12 12 12 12 13 12 12 13 13 13 13 12 13 13 15 12 7 6 5 4 6 8 8 9 9 9
7 8 7 9 10 11 11 10 11 11 11 11 11 11 12 12 12 12 12 13 13 14 13 13 13 14 14 13 13 12 12 13 8 6 6 5 4 3 6 7 7 9 11
9 8 7 9 10 11 10 10 10 10 11 11 11 11 11 12 12 13 13 14 14 14 14 14 14 14 14 14 14 13 13 12 8 8 7 6 7 6 8 7 7 9 11
9 8 8 8 9 10 10 10 10 10 10 10 10 9 9 10 11 12 13 13 14 14 14 15 16 16 16 15 14 13 15 15 8 6 7 5 6 9 10 8 8 10 12
8 7 7 8 8 8 7 9 10 11 10 10 9 5 3 5 9 10 10 12 13 14 13 15 15 16 16 15 14 13 14 13 6 6 5 7 12 13 12 10 10 12 13
8 7 7 7 7 8 8 9 9 10 9 8 6 3 3 5 5 5 7 10 12 13 13 14 15 15 15 14 16 16 12 5 8 6 6 11 16 15 15 14 13 14 15
10 8 7 8 7 7 7 6 5 5 5 4 4 4 3 3 3 4 6 9 11 12 14 16 16 14 11 6 9 12 5 8 7 5 6 15 18 18 17 17 17 18 17
11 9 8 8 7 6 5 5 3 3 3 4 5 3 3 3 3 3 2 4 5 7 6 9 8 6 6 6 5 5 6 5 4 5 7 16 19 19 19 19 19 20 21
12 13 10 9 8 7 6 4 4 3 3 3 4 2 3 3 3 2 2 3 3 3 5 5 4 7 7 8 7 7 7 5 4 4 6 14 18 19 19 19 20 21 22
13 14 12 10 10 8 7 5 5 5 4 5 4 3 3 3 3 2 2 2 3 4 5 5 5 6 6 7 6 8 8 8 8 7 5 11 17 19 20 20 20 21 22
14 14 13 12 10 9 7 5 5 5 5 5 4 5 3 3 3 2 3 3 3 4 4 3 5 5 5 5 6 7 8 8 8 8 7 8 14 17 19 20 20 21 22
12 12 12 11 10 10 9 8 5 6 5 5 5 5 4 4 3 2 3 2 3 3 3 3 4 4 5 5 6 7 7 7 9 10 9 7 7 11 15 18 19 21 22
10 12 12 11 10 10 8 7 5 5 5 5 5 5 5 5 4 3 2 2 2 2 2 3 3 4 5 5 5 6 6 7 10 11 9 7 6 6 8 16 19 21 22
12 12 12 10 10 9 8 6 6 5 5 5 5 4 5 5 4 3 3 2 2 1 2 3 3 3 5 6 6 7 6 8 9 11 9 8 6 6 5 10 14 15 19
13 13 12 10 10 9 7 5 5 5 4 5 4 5 6 5 4 3 3 2 2 2 2 2 4 5 4 5 8 9 9 10 9 8 8 7 5 6 6 6 5 7 12
13 14 14 12 11 10 8 8 7 6 5 5 5 7 6 5 5 4 3 3 2 1 2 3 4 5 4 4 5 6 8 9 10 5 3 3 5 6 6 5 3 3 5
15 15 15 15 14 12 9 7 5 7 5 5 5 6 7 6 5 4 4 3 1 1 2 3 4 3 4 4 4 5 6 6 4 4 5 7 8 6 3 4 6 6 6
15 17 16 16 14 13 11 7 6 5 5 4 6 6 6 7 6 5 5 3 1 0 2 2 3 4 4 3 2 3 4 6 7 5 6 5 4 5 6 7 7 6 6
15 14 14 15 14 14 13 11 13 10 8 7 7 6 7 7 7 6 5 4 2 2 2 2 3 3 3 4 3 3 3 4 6 10 4 3 6 9 8 6 5 6 7
12 13 13 13 13 13 12 13 12 8 6 5 7 8 7 6 7 7 6 5 3 2 2 2 3 4 4 4 3 3 3 4 6 7 12 8 5 5 6 7 6 6 7
11 11 12 13 13 13 13 12 13 12 10 12 10 9 7 5 5 7 7 6 5 3 2 3 3 4 4 5 4 3 4 4 4 6 10 17 16 9 8 7 8 7 8
Wind_Direction
100 84 62 70 68 62 59 62 67 70 71 69 65 59 52 51 51 49 44 43 41 28 20 18 16 17 22 18 12 11 12 9 358 354 348 334 315 298 294 312 323 311 287
95 92 73 76 77 73 68 62 60 61 62 63 65 63 56 50 48 47 43 39 38 36 31 25 22 24 24 18 11 8 8 9 357 345 332 317 294 267 253 283 337 316 337
101 103 81 75 77 77 77 74 70 66 64 64 67 67 62 55 50 49 46 39 33 31 30 32 34 32 25 16 7 3 2 4 0 343 319 292 293 282 170 155 332 302 310
100 85 79 86 86 86 86 84 82 81 79 76 73 70 66 61 55 51 46 40 33 28 24 23 25 25 19 13 7 3 360 356 351 336 314 316 341 36 33 13 351 340 324
107 98 88 97 94 90 86 84 85 85 82 79 75 68 65 62 59 53 48 41 34 28 26 26 23 22 18 13 9 7 4 354 340 315 292 317 339 8 10 3 355 344 334
110 95 87 97 100 98 95 93 90 87 83 80 77 70 66 61 56 51 45 39 33 26 23 24 18 14 12 11 6 4 2 357 336 312 320 325 327 355 357 353 347 338 325
119 100 98 103 109 106 101 96 91 86 83 79 75 70 64 59 53 47 40 35 31 26 22 21 13 6 359 356 353 352 351 344 337 319 308 295 281 311 319 324 330 328 325
122 114 115 110 105 103 102 100 96 90 84 77 72 67 63 58 53 45 38 33 30 25 20 16 11 4 357 351 345 345 342 335 329 313 306 299 301 295 294 305 320 322 322
133 143 146 138 116 107 104 106 106 101 94 85 79 73 67 62 55 46 35 30 27 20 15 11 6 0 355 349 345 343 335 323 305 275 285 289 308 303 293 301 309 312 313
144 157 155 149 141 132 121 121 121 118 111 102 93 86 69 69 63 56 35 28 27 20 14 11 4 357 352 348 348 346 329 319 315 326 329 327 348 340 321 305 305 303 304
167 166 159 156 152 143 139 140 135 132 133 129 114 94 53 57 40 57 45 29 27 19 15 14 3 359 356 355 353 349 336 347 343 332 322 317 326 327 324 317 307 301 299
182 177 166 164 161 156 154 156 158 153 139 110 90 75 66 82 57 47 45 31 24 22 17 11 5 6 0 349 343 343 342 340 331 325 323 328 327 323 318 313 310 303 298
179 177 173 168 163 160 146 154 151 131 125 108 90 91 97 75 55 47 40 19 15 25 18 3 1 355 350 342 333 331 328 331 322 323 324 322 319 315 311 307 303 301 298
180 180 172 168 161 161 151 155 145 140 142 124 111 67 92 94 66 55 52 21 19 21 10 6 352 350 344 334 333 328 324 318 309 303 295 305 310 309 307 305 301 296 293
185 177 173 168 162 158 154 163 159 149 146 133 132 99 81 100 85 70 67 37 26 26 17 359 344 341 333 325 325 322 319 317 308 301 297 297 300 303 304 304 301 298 294
186 174 167 167 162 156 161 162 154 144 140 138 128 121 97 103 100 75 65 43 38 32 7 336 328 327 315 310 311 313 310 305 299 299 294 295 296 299 303 304 303 301 298
181 166 164 165 160 161 165 163 154 146 148 139 131 137 135 115 103 90 75 54 52 26 350 335 333 324 313 313 312 309 302 296 293 291 290 288 291 294 298 304 307 307 304
172 164 163 168 163 163 161 154 145 145 143 138 141 149 144 126 115 104 89 72 53 26 353 336 324 320 313 313 308 299 292 286 284 287 288 287 287 291 302 306 305 303 304
171 163 160 161 162 161 153 149 142 140 141 142 144 150 139 129 127 120 109 96 57 27 354 333 333 324 312 312 304 293 287 281 279 281 281 279 273 272 276 291 290 291 299
163 158 157 156 160 155 145 141 131 139 151 148 152 145 137 141 144 131 121 75 51 25 351 334 317 304 295 297 302 297 287 280 277 271 268 269 267 268 267 269 272 276 288
155 156 159 163 168 162 162 160 155 168 167 160 158 148 150 153 150 138 115 87 59 6 326 317 303 302 307 314 315 308 289 277 269 272 283 302 291 284 281 282 294 306 305
159 160 165 172 177 175 174 169 158 157 169 166 156 153 159 157 156 134 121 129 125 351 321 307 309 317 316 342 342 318 314 317 329 346 316 296 286 279 291 331 335 322 310
167 171 176 177 178 176 169 162 144 129 119 143 161 162 164 157 153 147 147 144 138 253 280 303 323 305 296 312 290 284 308 306 309 275 267 272 316 335 323 317 302 295 307
176 173 175 178 177 177 173 170 165 167 169 178 170 161 156 160 164 155 150 148 162 212 256 281 287 278 280 277 280 252 254 289 311 309 289 289 309 291 283 293 305 305 301
173 175 179 178 181 180 178 175 174 173 167 148 146 147 155 166 165 158 161 154 167 196 236 262 275 267 254 253 255 282 295 291 268 282 294 295 281 277 292 289 288 289 290
173 176 180 184 186 181 179 183 186 176 165 153 156 161 168 171 165 167 162 157 169 183 217 243 257 264 260 260 257 250 250 257 266 274 290 302 301 293 282 277 277 276 277